Theta_e
291 292 292 290 290 290 289 289 285 286 287 291 293 295 296 298 300 300 301 302 305 313 325 329 330 331 328 326 329 328 325 322 321 320 318 315 314 314 313 313 313 314 313 313
288 291 290 287 290 290 291 291 291 290 289 296 298 299 299 299 300 300 301 302 305 311 328 330 332 332 330 330 329 327 324 321 320 318 316 315 313 314 312 311 311 311 311 311
282 287 286 277 288 290 291 292 291 287 292 296 295 297 297 298 299 301 302 303 305 309 327 331 332 331 331 330 328 325 323 319 318 317 315 314 313 311 310 309 309 308 307 308
282 283 270 287 295 294 292 293 294 294 294 294 296 298 299 300 300 301 304 305 305 310 322 332 330 328 327 325 324 322 319 317 316 315 313 312 311 310 308 307 306 306 304 304
282 281 284 287 291 291 289 288 292 291 292 293 296 297 297 303 304 305 305 307 308 313 320 328 325 324 323 322 321 319 318 317 316 314 312 310 308 307 306 305 304 303 302 301
283 278 269 279 294 297 294 285 294 294 292 292 294 289 293 302 303 303 307 309 310 317 325 325 323 323 322 320 318 317 318 316 315 314 312 309 307 305 305 305 302 301 298 300
279 279 281 291 294 295 283 285 294 295 293 293 292 295 298 301 301 304 306 310 313 318 322 323 323 322 319 318 317 318 317 316 315 314 311 309 306 304 303 301 298 296 295 296
283 281 276 294 292 287 292 296 296 297 295 294 297 298 298 300 302 305 307 313 314 319 322 322 322 322 318 317 318 317 315 314 313 312 310 308 305 303 300 297 295 292 292 293
285 282 288 293 293 295 296 296 297 297 296 297 297 297 298 300 303 306 307 314 315 319 319 320 322 321 318 315 317 315 312 312 311 311 310 308 305 300 296 295 294 292 293 293
287 290 291 293 294 294 296 298 299 298 297 298 297 298 299 301 304 306 309 313 316 319 319 317 319 318 315 314 314 313 312 310 310 309 308 308 304 301 297 295 294 293 293 291
286 290 291 292 293 295 297 297 297 297 297 297 298 298 301 304 306 312 314 314 317 319 318 316 316 315 315 314 314 312 311 310 309 308 308 307 303 300 298 297 296 295 294 292
286 290 289 289 292 295 293 294 295 295 296 298 299 301 304 306 312 313 314 316 316 319 316 316 315 315 315 314 314 312 310 309 308 307 303 301 300 297 292 295 294 292 291 292
292 290 291 293 293 293 292 294 295 296 297 298 301 304 310 310 310 309 312 313 313 314 313 313 314 313 314 314 313 311 309 307 305 304 302 302 302 300 295 291 291 291 290 289
292 292 290 289 289 291 293 295 296 297 298 299 301 304 310 309 310 309 309 311 313 313 312 311 312 311 313 314 312 310 307 301 304 303 302 302 304 301 299 296 292 288 289 289
291 291 289 289 290 292 294 294 293 294 295 297 299 302 308 308 308 308 310 311 312 313 312 312 311 310 312 311 307 304 304 302 302 301 301 300 300 300 300 297 293 288 288 288
290 289 289 291 291 292 292 292 291 292 293 295 296 298 302 308 308 309 310 311 309 308 311 310 307 307 307 307 306 305 303 297 297 297 296 297 297 296 295 293 290 289 289 289
287 288 288 289 290 290 290 291 291 292 293 293 295 297 306 307 307 307 308 309 309 309 309 307 306 307 309 306 304 301 299 297 293 297 297 296 294 293 291 291 289 289 289 289
292 291 291 290 289 289 290 290 290 291 291 293 295 296 301 303 302 303 305 307 307 306 307 307 307 307 306 305 303 301 300 299 299 297 296 295 293 292 291 290 289 289 290 288
292 291 291 290 290 289 289 289 289 291 291 292 292 291 294 294 297 296 296 297 300 300 301 307 300 305 305 301 302 303 302 300 299 299 298 292 293 292 291 290 290 291 290 289
291 291 291 290 289 289 288 289 289 289 290 290 290 290 289 290 293 293 292 289 290 293 303 306 307 306 305 302 300 304 303 301 300 299 297 296 294 293 292 289 291 291 291 290
290 291 290 289 288 288 288 288 288 287 289 288 289 287 288 287 287 291 290 288 289 292 296 297 304 305 305 303 305 305 304 302 301 299 297 296 294 294 293 292 292 292 290 290
288 290 290 289 288 287 288 288 288 287 287 287 286 288 287 287 288 288 287 287 289 288 293 293 294 292 297 295 306 305 304 303 302 301 300 298 296 294 294 293 293 292 291 290
288 289 290 289 288 288 288 288 287 287 286 285 285 285 285 285 285 286 286 286 289 288 292 291 288 289 290 303 304 304 304 304 302 301 301 300 298 296 295 294 294 292 291 291
288 287 289 290 290 288 286 287 287 287 286 285 285 285 285 285 285 286 287 287 287 288 288 289 289 288 292 298 300 302 302 303 302 302 302 295 300 298 296 295 295 294 292 291
288 287 286 288 288 287 287 287 287 286 286 285 285 286 286 286 285 285 287 287 286 288 289 287 287 288 294 296 297 297 298 299 300 301 300 301 300 300 298 296 295 292 291 291
286 284 284 285 288 288 288 287 286 286 286 285 286 286 286 287 287 287 288 287 288 288 288 289 290 291 292 293 294 296 297 297 298 299 299 300 301 300 297 296 294 292 292 291
286 285 284 283 283 284 283 283 283 285 286 286 286 287 288 287 287 287 287 288 288 288 289 289 289 289 291 291 292 293 295 296 292 295 296 297 297 297 297 296 295 294 293 291
Wind_Speed
12 19 19 20 21 18 16 11 8 13 13 18 19 19 19 18 10 11 15 11 8 15 12 16 18 18 17 19 17 17 17 14 15 13 12 14 14 13 13 12 10 10 10 9
12 17 16 16 14 14 15 11 9 12 21 15 6 9 12 12 9 13 14 12 9 13 14 17 17 18 21 20 20 18 17 17 14 15 14 13 13 14 13 11 11 11 10 10
8 6 13 5 4 3 0 2 7 12 6 12 13 13 13 14 15 19 19 14 11 12 13 15 17 16 19 19 16 16 17 19 18 17 15 14 14 14 13 12 11 10 10 9
7 6 5 2 2 4 3 11 16 6 11 16 15 16 17 17 16 21 16 15 11 10 11 14 14 16 16 17 17 17 17 18 17 17 15 15 14 14 12 10 11 10 9 9
4 6 14 2 2 2 6 12 5 5 13 17 17 19 18 10 4 10 10 12 11 8 11 15 17 17 18 17 16 17 18 20 20 19 18 16 15 12 11 11 10 8 9 9
2 4 5 6 4 4 7 6 0 13 12 17 15 11 16 9 13 17 14 11 10 7 6 14 17 19 20 18 18 18 18 19 19 18 19 17 16 13 10 11 9 8 8 5
4 5 9 4 4 4 5 4 9 8 12 16 14 12 23 21 20 15 14 15 8 7 8 13 18 20 19 18 18 16 16 15 16 17 17 17 15 12 11 11 10 9 9 4
1 4 9 5 0 1 6 7 12 10 11 17 19 20 23 16 17 17 16 13 5 6 6 9 15 17 20 19 17 17 17 13 13 17 14 13 17 12 12 11 11 9 8 6
7 8 6 6 9 7 5 10 11 9 17 17 18 19 21 18 16 16 15 11 4 6 9 9 12 15 17 16 19 20 21 15 12 16 13 15 17 15 12 10 10 8 7 7
3 8 10 9 5 5 4 8 8 13 17 16 18 19 16 17 18 17 10 8 5 7 11 10 11 13 16 18 19 18 19 24 15 15 13 12 10 10 12 10 9 8 8 7
7 14 10 9 4 3 6 8 13 15 14 16 16 18 16 16 17 12 8 7 7 8 12 14 15 17 16 16 19 19 18 19 15 13 14 12 7 9 10 7 10 11 8 8
8 6 6 7 3 3 8 13 13 15 17 16 14 17 16 16 8 9 7 7 7 8 10 13 13 14 15 20 18 18 18 16 13 12 11 10 10 10 17 10 14 13 12 8
9 2 6 6 3 5 9 13 13 15 14 17 16 14 10 4 3 2 5 7 9 12 14 14 13 12 14 15 17 17 16 17 13 13 12 12 11 10 11 11 17 11 13 13
3 2 4 4 5 9 10 13 14 12 11 13 13 15 2 1 2 3 4 9 11 11 14 14 14 12 11 13 15 14 15 20 13 12 11 11 10 9 10 10 8 5 9 6
5 3 1 4 5 8 10 10 13 13 13 14 14 11 5 2 4 5 5 9 10 12 12 15 14 12 11 13 17 17 14 11 12 10 10 10 9 9 9 9 9 8 7 7
5 4 5 6 8 10 11 12 12 14 13 13 13 15 12 3 6 6 6 8 10 9 12 14 14 14 15 14 15 13 12 18 13 11 11 10 8 9 9 9 9 9 8 7
3 4 5 6 8 10 10 9 10 12 13 12 12 13 2 7 8 8 7 9 10 9 10 13 14 14 15 16 15 11 11 11 14 11 10 9 9 9 9 9 9 8 8 7
6 4 4 5 7 8 9 10 10 11 11 12 10 11 9 6 7 8 8 12 13 11 11 12 12 13 13 13 13 13 10 11 11 10 10 9 9 9 9 10 10 10 8 5
8 7 7 7 7 7 7 8 10 9 10 9 8 10 9 10 8 10 12 13 10 10 5 12 17 15 11 13 15 12 11 12 11 10 9 10 9 9 9 9 10 9 9 8
7 7 7 7 7 7 8 9 9 9 10 11 9 10 13 12 12 12 14 14 9 4 4 10 12 13 13 13 13 11 10 11 11 10 9 9 9 9 8 9 10 9 8 8
7 6 7 7 7 8 9 9 9 11 11 12 12 12 13 12 14 11 14 11 12 9 10 12 8 7 7 8 10 9 10 9 9 10 8 8 10 9 9 9 9 9 9 8
4 7 8 8 7 8 9 9 10 11 12 13 12 13 14 13 12 15 13 10 7 11 9 7 5 6 6 8 7 8 8 9 8 8 7 8 8 9 9 9 10 8 9 9
4 5 7 8 8 8 8 10 11 11 12 12 12 12 12 9 9 10 11 11 9 10 9 8 9 11 10 5 6 7 8 8 8 8 6 7 8 9 9 9 8 8 9 9
4 4 6 7 8 8 10 9 9 10 10 10 11 10 7 7 9 7 6 9 12 12 11 10 13 12 10 6 5 6 6 6 6 6 7 8 8 8 8 9 8 7 8 10
4 4 4 7 7 6 7 6 7 8 9 10 10 10 10 8 7 5 6 6 10 8 8 12 13 12 9 8 7 7 6 4 5 6 6 5 8 8 8 9 8 8 8 8
4 3 3 4 6 5 4 4 5 4 5 7 7 6 6 6 7 7 7 8 9 10 8 7 7 7 7 7 7 7 6 4 4 5 6 5 4 7 8 8 9 9 9 8
4 4 3 3 3 3 3 3 4 5 5 5 6 5 5 5 6 6 7 7 7 7 7 7 7 7 5 6 6 6 5 5 5 3 4 5 5 5 7 8 8 8 9 9
Wind_Direction
269 270 269 271 282 283 272 238 236 271 280 294 290 295 295 294 272 296 293 304 321 318 203 192 179 167 161 153 148 150 147 144 153 148 151 145 139 143 135 133 129 136 134 130
289 277 268 275 278 278 269 285 278 292 280 286 292 299 314 315 270 275 283 298 306 321 214 190 183 179 168 163 163 157 152 144 146 144 144 144 141 135 130 127 134 135 136 135
286 316 307 318 220 236 276 243 293 297 298 313 308 310 306 308 302 293 288 299 306 311 234 183 181 168 167 167 155 152 154 143 148 146 146 149 137 137 135 143 138 134 128 129
289 328 345 216 54 299 301 285 298 316 338 318 316 308 294 275 259 267 285 303 305 292 262 169 158 159 151 156 152 149 146 142 143 146 148 139 143 142 134 142 135 133 127 123
287 309 283 259 180 313 329 322 46 352 323 313 317 313 290 288 252 288 307 298 288 276 284 156 155 153 147 148 148 149 156 155 149 151 144 144 141 139 138 132 127 131 130 133
315 291 264 235 212 253 270 267 336 352 312 303 312 301 286 311 326 316 303 305 286 282 252 163 157 154 147 151 155 159 162 155 151 151 148 148 138 137 134 127 126 130 113 116
230 247 274 199 228 274 347 301 289 305 293 291 291 278 285 301 302 297 284 283 286 298 205 172 159 151 152 155 160 152 142 145 150 146 141 129 126 125 132 129 123 114 113 116
220 264 272 158 174 229 251 293 286 270 305 293 286 286 286 299 292 290 294 283 288 279 170 164 166 157 152 153 142 137 121 126 144 130 133 136 132 133 130 126 122 120 122 108
194 230 235 201 237 252 255 268 275 294 302 290 285 281 292 297 286 279 274 273 253 240 158 165 168 156 145 138 145 142 125 117 143 121 139 146 142 135 128 126 130 131 136 122
345 269 258 269 275 239 261 270 291 283 287 288 285 286 291 292 287 286 275 252 233 210 161 155 155 145 135 137 135 137 143 137 141 126 143 142 134 143 129 141 137 138 139 127
259 280 288 272 241 312 304 293 290 293 291 287 284 286 283 277 275 267 256 235 206 191 149 146 139 134 135 137 139 139 137 130 137 142 138 136 126 124 136 138 153 152 148 144
237 235 212 277 302 358 318 308 306 305 304 298 291 284 281 272 259 261 230 185 183 166 130 139 136 136 149 143 141 140 143 136 146 137 122 127 121 94 48 116 123 104 105 136
257 170 227 269 282 352 308 308 307 307 305 308 309 306 262 230 295 36 110 119 119 136 124 125 130 136 150 141 141 147 138 133 130 136 134 141 129 135 120 63 69 95 118 112
230 265 281 56 313 307 303 311 315 310 318 316 328 318 192 99 107 61 85 117 124 132 127 126 127 130 137 131 133 125 121 127 132 136 139 130 134 137 129 128 124 112 48 103
111 80 138 298 318 317 318 329 333 330 336 337 330 331 323 101 74 76 80 108 118 122 122 123 124 128 125 132 124 125 121 124 125 123 123 120 129 132 123 128 130 122 112 74
121 67 359 3 345 329 329 338 338 328 335 334 333 330 322 86 83 75 81 109 122 127 130 123 119 124 123 128 126 126 121 125 124 123 122 126 135 126 124 129 132 138 145 144
105 350 359 356 340 331 332 332 328 323 324 333 328 319 252 102 87 84 86 87 90 94 102 116 124 129 134 133 127 126 125 124 124 122 129 135 133 130 134 141 147 152 150 158
93 82 34 2 338 328 334 342 336 334 332 328 344 354 33 71 91 80 89 96 92 88 98 110 116 118 121 123 124 121 124 128 125 126 127 129 132 138 142 143 147 144 139 135
62 55 36 21 359 343 343 341 341 342 349 356 19 31 40 43 59 73 69 57 61 78 45 110 107 104 106 116 113 115 123 120 124 124 122 125 129 132 141 144 142 140 138 138
64 56 46 28 13 7 2 358 355 11 19 24 24 44 49 39 52 66 75 64 29 360 67 96 97 108 115 116 114 113 122 123 124 122 133 134 135 138 135 135 139 132 136 139
66 61 50 34 23 22 18 8 15 23 27 34 42 47 56 49 48 44 55 59 4 5 53 59 82 95 100 109 106 112 115 110 117 124 137 136 131 133 142 140 139 142 138 136
59 63 60 47 36 36 29 28 35 34 39 38 36 42 48 43 58 67 54 56 20 15 46 41 40 75 107 99 111 112 112 120 121 125 127 133 137 140 139 143 143 143 141 143
80 66 71 62 50 44 41 38 37 43 49 42 41 44 52 47 35 51 53 7 38 28 52 49 45 60 64 83 112 127 137 135 133 132 135 140 141 141 143 145 145 144 147 148
100 78 78 86 75 59 49 35 43 44 50 50 48 39 37 50 49 32 37 34 33 38 40 34 38 42 57 55 71 108 115 124 135 148 159 155 147 141 142 145 143 141 141 142
106 81 69 88 76 66 60 43 46 41 52 54 50 49 50 42 62 28 35 41 40 40 39 28 34 32 44 48 51 62 65 91 116 127 127 149 144 145 145 146 144 141 139 143
118 107 97 85 91 83 72 63 64 48 54 61 56 51 54 52 51 46 47 38 39 38 41 36 36 41 40 40 45 55 64 65 89 106 112 114 137 139 137 139 138 144 142 142
86 102 102 81 52 67 67 70 67 66 71 71 70 56 63 63 58 53 50 50 49 45 39 33 30 28 30 36 37 34 36 54 55 79 97 116 119 124 138 145 142 141 139 140